User: anonymous
Location: North Smoke Tower Site
(30.5430°N, 82.3390°W)
Time: 18:13:51
(UTC-04:00)
Language:

Cosmos 1980 Rocket - Orbit

View from above orbital plane
View from above orbital plane
View from above satellite
View from above satellite

Ground track
Ground track

The orbit data is extracted from the following two-line orbital elements,

1 19650U 88102B   14242.47556339  .00000257  00000-0  15549-3 0  3631
2 19650 071.0025 003.3434 0016254 294.7545 130.2431 14.15668514331393
Epoch (UTC): 30 August 2014 11:24:48
Eccentricity: 0.0016254
inclination: 71.0025°
perigee height: 828 km
apogee height: 852 km
right ascension of ascending node: 3.3434°
argument of perigee: 294.7545°
revolutions per day: 14.15668514
mean anomaly at epoch: 130.2431°
orbit number at epoch: 33139

The dashed part of the orbit path shows where the satellite is in the earth's shadow,  

DLR